Weather History for Millville, NJ

Change the Weather History Date:

Monday, January 21, 2013

  Actual Average Record
Temperature  
Mean Temperature 32 °F -  
Max Temperature 37 °F 39 °F 61 °F (1974)
Min Temperature 26 °F 22 °F -6 °F (1961)
Degree Days  
Heating Degree Days 32    
Moisture  
Dew Point 18 °F    
Average Humidity 62    
Maximum Humidity 93    
Minimum Humidity 35    
Precipitation  
Precipitation 0.00 in - - ()
Sea Level Pressure  
Sea Level Pressure 29.95 in    
Wind  
Wind Speed 6 mph (North)    
Max Wind Speed 18 mph    
Max Gust Speed 25 mph    
Visibility 8 miles    
Events Fog , Snow    
Averages and records for this station are not official NWS values.
T = Trace of Precipitation, MM = Missing Value Source: NWS Daily Summary

Daily Weather History Graph

Daily Weather History Graph

Search for Another Location

Airport:

Trip Planner

Search our weather history database for the weather conditions in past years. The results will help you decide how hot, cold, wet, or windy it might be!

Date:

Astronomy

Jan. 21, 2013 Rise Set
Actual Time 7:15 AM EST 5:08 PM EST
Civil Twilight 6:46 AM EST 5:37 PM EST
Nautical Twilight 6:13 AM EST 6:09 PM EST
Astronomical Twilight 5:41 AM EST 6:41 PM EST
Moon 12:46 PM EST (1/21) 2:41 AM EST (1/21)
Length of Visible Light 10h 50m
Length of Day
9h 52m
Waxing Gibbous, 75% of the Moon is Illuminated
Jan 21
Waxing Gibbous
Jan 26
Full
Feb 3
Last Quarter
Feb 10
New
Feb 17
First Quarter

Hourly Weather History & Observations

Time (EST) Temp. Windchill Dew Point Humidity Pressure Visibility Wind Dir Wind Speed Gust Speed Precip Events Conditions
12:54 AM 33.1 °F 28.7 °F 14.0 °F 46% 30.09 in 10.0 mi NW 4.6 mph - N/A   Clear
1:54 AM 30.9 °F 25.2 °F 15.1 °F 52% 30.11 in 10.0 mi NNW 5.8 mph - N/A   Clear
2:54 AM 30.9 °F 25.2 °F 12.9 °F 47% 30.11 in 10.0 mi NNW 5.8 mph - N/A   Clear
3:54 AM 30.0 °F 23.2 °F 12.0 °F 47% 30.10 in 10.0 mi NNW 6.9 mph - N/A   Clear
4:54 AM 30.0 °F 22.4 °F 9.0 °F 41% 30.07 in 10.0 mi North 8.1 mph 19.6 mph N/A   Clear
5:54 AM 28.9 °F - 10.0 °F 45% 30.09 in 10.0 mi Calm Calm - N/A   Clear
6:54 AM 28.9 °F 23.9 °F 10.0 °F 45% 30.11 in 10.0 mi NW 4.6 mph - N/A   Clear
7:54 AM 28.9 °F - 10.0 °F 45% 30.12 in 10.0 mi Calm Calm - N/A   Clear
8:54 AM 30.9 °F - 9.0 °F 40% 30.12 in 10.0 mi Calm Calm - N/A   Clear
9:54 AM 32.0 °F - 10.0 °F 40% 30.11 in 10.0 mi Calm Calm - N/A   Clear
10:54 AM 34.0 °F - 10.0 °F 37% 30.09 in 10.0 mi Calm Calm - N/A   Clear
11:54 AM 35.1 °F 32.2 °F 10.0 °F 35% 30.04 in 10.0 mi Variable 3.5 mph - N/A   Scattered Clouds
12:54 PM 34.0 °F 31.0 °F 12.0 °F 40% 30.00 in 10.0 mi SW 3.5 mph - N/A   Overcast
1:54 PM 34.0 °F 29.8 °F 10.9 °F 38% 29.97 in 10.0 mi Variable 4.6 mph - N/A   Overcast
2:54 PM 37.0 °F 31.6 °F 12.0 °F 36% 29.92 in 10.0 mi SE 6.9 mph - N/A   Overcast
3:54 PM 37.0 °F 31.6 °F 17.1 °F 44% 29.88 in 10.0 mi SSE 6.9 mph - N/A   Overcast
4:54 PM 36.0 °F 32.1 °F 19.9 °F 52% 29.86 in 10.0 mi SSE 4.6 mph - N/A   Overcast
5:35 PM 35.6 °F 29.2 °F 21.2 °F 56% 29.84 in 10.0 mi ESE 8.1 mph - N/A   Overcast
5:54 PM 35.1 °F 30.1 °F 21.0 °F 57% 29.84 in 10.0 mi ESE 5.8 mph - N/A   Mostly Cloudy
6:13 PM 33.8 °F 29.6 °F 21.2 °F 60% 29.83 in 10.0 mi East 4.6 mph - N/A   Overcast
6:54 PM 35.1 °F 31.0 °F 19.9 °F 54% 29.81 in 10.0 mi NE 4.6 mph - N/A   Overcast
7:26 PM 35.6 °F 29.9 °F 19.4 °F 52% 29.82 in 10.0 mi North 6.9 mph - 0.00 in   Overcast
7:37 PM 33.8 °F 25.3 °F 24.8 °F 70% 29.83 in 1.8 mi North 11.5 mph - 0.00 in Snow Light Snow
7:54 PM 28.9 °F 16.5 °F 27.0 °F 92% 29.86 in 0.5 mi NNW 18.4 mph 25.3 mph 0.00 in Fog , Snow Snow
8:15 PM 28.4 °F 18.0 °F 26.6 °F 93% 29.87 in 1.5 mi NNW 12.7 mph - 0.00 in Snow Light Snow
8:33 PM 28.4 °F 19.7 °F 26.6 °F 93% 29.86 in 0.8 mi NNW 9.2 mph - 0.00 in Snow Light Snow
8:43 PM 28.4 °F 20.4 °F 26.6 °F 93% 29.87 in 0.8 mi North 8.1 mph - 0.00 in Snow Light Snow
8:51 PM 28.4 °F 19.1 °F 26.6 °F 93% 29.86 in 1.0 mi NNW 10.4 mph - 0.00 in Snow Light Snow
8:54 PM 28.9 °F 19.8 °F 27.0 °F 92% 29.86 in 1.0 mi North 10.4 mph - 0.00 in Snow Light Snow
9:11 PM 28.4 °F 19.1 °F 26.6 °F 93% 29.87 in 1.8 mi North 10.4 mph - 0.00 in Snow Light Snow
9:22 PM 28.4 °F 19.7 °F 26.6 °F 93% 29.87 in 2.5 mi NNW 9.2 mph - 0.00 in Snow Light Snow
9:28 PM 28.4 °F 18.5 °F 26.6 °F 93% 29.88 in 5.0 mi NNW 11.5 mph - 0.00 in Snow Light Snow
9:36 PM 30.2 °F 20.2 °F 26.6 °F 86% 29.88 in 8.0 mi NNW 12.7 mph 19.6 mph 0.00 in   Overcast
9:54 PM 28.9 °F 19.8 °F 25.0 °F 85% 29.88 in 9.0 mi North 10.4 mph - 0.00 in   Overcast
10:54 PM 28.0 °F 22.8 °F 21.0 °F 75% 29.88 in 10.0 mi NNW 4.6 mph - N/A   Partly Cloudy
11:54 PM 26.1 °F 19.4 °F 19.9 °F 78% 29.90 in 10.0 mi NNW 5.8 mph - N/A   Partly Cloudy